Overview Statistics Trail Chart Weather Telemetry Raw packets
 

This is the latest recevied weather packets stored in our database for station/object HB9FHL-13. If no packets are shown the sender has not sent any weather packets the latest 10 day(s).

<< 44 45 46 47 48 49 50 >>
Time Temp. Humidity Pressure Rain* Wind** Luminosity Snow
1788421616 19.44° C - 1027.5 hPa 0 mm - - -
1788421315 19.44° C - 1025.2 hPa 0 mm - - -
1788421015 18.89° C - 1026.2 hPa 0 mm - - -
1788420412 18.33° C - 1026.5 hPa 0 mm - - -
1788420111 18.89° C - 1025.6 hPa 0 mm - - -
1788419207 18.89° C - 1024.9 hPa 0 mm - - -
1788418606 18.33° C - 1027.4 hPa 0 mm - - -
1788418305 18.89° C - 1026 hPa 0 mm - - -
1788417704 18.33° C - 1027.6 hPa 0 mm - - -
1788416800 19.44° C - 1025.3 hPa 0 mm - - -
1788416500 19.44° C - 1026.3 hPa 0 mm - - -
1788416199 20° C - 1024.9 hPa 0 mm - - -
1788415899 19.44° C - 1024.4 hPa 0 mm - - -
1788415598 19.44° C - 1026.7 hPa 0 mm - - -
1788414997 18.89° C - 1023.4 hPa 0 mm - - -
1788414697 17.78° C - 1024 hPa 0 mm - - -
1788414396 18.89° C - 1025.5 hPa 0 mm - - -
1788414096 18.89° C - 1024.5 hPa 0 mm - - -
1788413795 17.78° C - 1024 hPa 0 mm - - -
1788413194 18.89° C - 1025.6 hPa 0 mm - - -
1788412892 18.89° C - 1022.7 hPa 0 mm - - -
1788412592 18.33° C - 1024.9 hPa 0 mm - - -
1788412291 18.33° C - 1025.4 hPa 0 mm - - -
1788411987 17.78° C - 1024.9 hPa 0 mm - - -
1788411686 17.78° C - 1023.2 hPa 0 mm - - -

* Rain since midnight (hover to see other rain measurements)
** Current wind speed in m/s (hover to see current wind gust speed)